Weather History for KCKC - May, 2013

Change the Weather History Date:

Tuesday, May 21, 2013

  Actual Average Record
Temperature  
Mean Temperature 42 °F -  
Max Temperature 44 °F 57 °F 66 °F (2011)
Min Temperature 41 °F 37 °F 24 °F (2002)
Degree Days  
Heating Degree Days 22    
Moisture  
Dew Point 39 °F    
Average Humidity 86    
Maximum Humidity 87    
Minimum Humidity 81    
Precipitation  
Precipitation 0.25 in - - ()
Sea Level Pressure  
Sea Level Pressure 29.76 in    
Wind  
Wind Speed 20 mph (NNE)    
Max Wind Speed 25 mph    
Max Gust Speed 34 mph    
Visibility 4 miles    
Events Rain    
Averages and records for this station are not official NWS values.
T = Trace of Precipitation, MM = Missing Value Source: NWS Daily Summary

Daily Weather History Graph

Daily Weather History Graph

Search for Another Location

Airport or City:

Trip Planner

Search our weather history database for the weather conditions in past years. The results will help you decide how hot, cold, wet, or windy it might be!

Date:

Astronomy

May. 21, 2013 Rise Set
Actual Time 5:16 AM CDT 8:40 PM CDT
Civil Twilight 4:38 AM CDT 9:19 PM CDT
Nautical Twilight 3:48 AM CDT 10:09 PM CDT
Astronomical Twilight 2:42 AM CDT 11:15 PM CDT
Moon 4:39 PM CDT (5/21) 3:01 AM CDT (5/21)
Length of Visible Light 16h 40m
Length of Day
15h 24m
Waxing Gibbous, 84% of the Moon is Illuminated
May 21
Waxing Gibbous
May 24
Full
May 31
Last Quarter
Jun 8
New
Jun 16
First Quarter

Hourly Weather History & Observations

Time (CDT) Temp. Windchill Dew Point Humidity Pressure Visibility Wind Dir Wind Speed Gust Speed Precip Events Conditions
12:13 AM 44.6 °F 36.4 °F 41.0 °F 87% 29.78 in 3.0 mi NE 20.7 mph 29.9 mph N/A   Overcast
12:34 AM 44.6 °F 36.4 °F 39.2 °F 81% 29.76 in 2.0 mi NE 20.7 mph 29.9 mph N/A   Overcast
12:53 AM 44.6 °F 35.7 °F 41.0 °F 87% 29.76 in 2.5 mi NE 24.2 mph 29.9 mph N/A   Overcast
1:09 AM 44.6 °F 35.9 °F 41.0 °F 87% 29.76 in 1.5 mi NE 23.0 mph 34.5 mph N/A   Overcast
1:21 AM 44.6 °F 36.4 °F 41.0 °F 87% 29.76 in 2.0 mi NE 20.7 mph 29.9 mph N/A   Overcast
1:41 AM 44.6 °F 36.1 °F 41.0 °F 87% 29.76 in 2.0 mi NE 21.9 mph 32.2 mph N/A   Overcast
2:01 AM 44.6 °F 36.4 °F 39.2 °F 81% 29.76 in 1.5 mi NE 20.7 mph 28.8 mph N/A   Overcast
2:21 AM 42.8 °F 34.3 °F 39.2 °F 87% 29.76 in 1.5 mi NE 19.6 mph 26.5 mph N/A   Overcast
2:41 AM 42.8 °F 34.8 °F 39.2 °F 87% 29.75 in 2.0 mi NE 17.3 mph 31.1 mph N/A   Overcast
3:21 AM 42.8 °F 35.4 °F 39.2 °F 87% 29.75 in 2.5 mi NE 15.0 mph 25.3 mph N/A   Overcast
3:41 AM 42.8 °F 35.4 °F 39.2 °F 87% 29.75 in 2.0 mi NNE 15.0 mph 25.3 mph N/A   Overcast
4:01 AM 42.8 °F 34.3 °F 39.2 °F 87% 29.75 in 2.0 mi NNE 19.6 mph 26.5 mph N/A   Overcast
4:21 AM 42.8 °F 34.3 °F 39.2 °F 87% 29.74 in 1.8 mi NNE 19.6 mph 26.5 mph N/A   Overcast
4:41 AM 42.8 °F 34.0 °F 39.2 °F 87% 29.74 in 2.0 mi NNE 20.7 mph 28.8 mph N/A   Overcast
5:06 AM 42.8 °F 34.0 °F 39.2 °F 87% 29.73 in 2.5 mi NNE 20.7 mph 26.5 mph N/A   Overcast
5:13 AM 42.8 °F 34.3 °F 39.2 °F 87% 29.73 in 2.5 mi NNE 19.6 mph 28.8 mph N/A   Overcast
5:33 AM 42.8 °F 33.8 °F 39.2 °F 87% 29.73 in 4.0 mi NNE 21.9 mph 29.9 mph N/A   Overcast
5:53 AM 42.8 °F 34.0 °F 39.2 °F 87% 29.74 in 3.0 mi NNE 20.7 mph 28.8 mph N/A   Overcast
6:13 AM 42.8 °F 33.8 °F 37.4 °F 81% 29.74 in 2.5 mi NNE 21.9 mph 31.1 mph N/A   Overcast
6:33 AM 42.8 °F 34.0 °F 37.4 °F 81% 29.74 in 2.0 mi NNE 20.7 mph 29.9 mph N/A   Overcast
6:54 AM 42.8 °F 34.0 °F 37.4 °F 81% 29.75 in 2.5 mi NNE 20.7 mph 34.5 mph N/A   Overcast
7:13 AM 41.0 °F 31.4 °F 37.4 °F 87% 29.75 in 1.8 mi NE 21.9 mph 28.8 mph N/A   Overcast
7:34 AM 41.0 °F 31.4 °F 37.4 °F 87% 29.74 in 2.0 mi NNE 21.9 mph 31.1 mph N/A   Overcast
7:54 AM 41.0 °F 30.7 °F 37.4 °F 87% 29.73 in 2.5 mi NNE 25.3 mph 31.1 mph N/A   Overcast
8:13 AM 41.0 °F 31.1 °F 37.4 °F 87% 29.72 in 5.0 mi NNE 23.0 mph 29.9 mph N/A   Overcast
8:33 AM 41.0 °F 31.1 °F 37.4 °F 87% 29.73 in 7.0 mi NNE 23.0 mph 31.1 mph N/A   Overcast
8:54 AM 41.0 °F 30.7 °F 37.4 °F 87% 29.72 in 7.0 mi NNE 25.3 mph 34.5 mph 0.02 in Rain Light Rain
9:13 AM 42.8 °F 33.3 °F 37.4 °F 81% 29.72 in 5.0 mi NNE 24.2 mph 32.2 mph N/A Rain Rain
9:33 AM 42.8 °F 33.5 °F 37.4 °F 81% 29.72 in 7.0 mi NNE 23.0 mph 32.2 mph 0.01 in Rain Rain
9:53 AM 42.8 °F 34.3 °F 37.4 °F 81% 29.72 in 10.0 mi NNE 19.6 mph 28.8 mph 0.01 in Rain Light Rain
10:14 AM 42.8 °F 34.5 °F 39.2 °F 87% 29.73 in 7.0 mi NNE 18.4 mph 27.6 mph 0.01 in   Drizzle
10:34 AM 42.8 °F 34.3 °F 39.2 °F 87% 29.73 in 10.0 mi NNE 19.6 mph 29.9 mph 0.02 in Rain Rain
10:53 AM 42.8 °F 33.5 °F 39.2 °F 87% 29.73 in 10.0 mi NNE 23.0 mph 31.1 mph 0.02 in   Light Drizzle
11:14 AM 42.8 °F 33.5 °F 39.2 °F 87% 29.73 in 7.0 mi NNE 23.0 mph 33.4 mph N/A   Light Drizzle
11:34 AM 42.8 °F 33.1 °F 39.2 °F 87% 29.72 in 2.0 mi NNE 25.3 mph 34.5 mph N/A   Drizzle
11:53 AM 44.6 °F 35.9 °F 39.2 °F 81% 29.71 in 7.0 mi NNE 23.0 mph 33.4 mph N/A   Overcast
12:13 PM 44.6 °F 36.6 °F 39.2 °F 81% 29.73 in 10.0 mi NNE 19.6 mph 28.8 mph N/A   Overcast
12:34 PM 44.6 °F 36.4 °F 39.2 °F 81% 29.72 in 7.0 mi NNE 20.7 mph 34.5 mph N/A   Drizzle
12:53 PM 42.8 °F 34.3 °F 39.2 °F 87% 29.72 in 7.0 mi NNE 19.6 mph 32.2 mph 0.01 in   Drizzle
1:13 PM 42.8 °F 34.0 °F 39.2 °F 87% 29.72 in 3.0 mi NNE 20.7 mph 29.9 mph 0.02 in Rain Light Rain
1:34 PM 42.8 °F 34.0 °F 39.2 °F 87% 29.72 in 1.5 mi NNE 20.7 mph 27.6 mph 0.07 in Rain Light Rain
1:53 PM 42.8 °F 34.3 °F 39.2 °F 87% 29.72 in 2.5 mi NNE 19.6 mph 32.2 mph 0.07 in Rain Light Rain
2:14 PM 42.8 °F 33.5 °F 39.2 °F 87% 29.72 in 5.0 mi NNE 23.0 mph 29.9 mph N/A Rain Light Rain
2:33 PM 42.8 °F 34.0 °F 39.2 °F 87% 29.73 in 7.0 mi NNE 20.7 mph 26.5 mph 0.01 in   Drizzle
2:53 PM 42.8 °F 34.3 °F 39.2 °F 87% 29.73 in 2.0 mi North 19.6 mph 31.1 mph 0.02 in Rain Rain
3:14 PM 42.8 °F 34.5 °F 39.2 °F 87% 29.74 in 4.0 mi NNE 18.4 mph 27.6 mph 0.01 in Rain Rain
3:33 PM 42.8 °F 34.0 °F 39.2 °F 87% 29.73 in 4.0 mi NNE 20.7 mph 32.2 mph 0.04 in Rain Rain
3:54 PM 42.8 °F 33.5 °F 39.2 °F 87% 29.73 in 4.0 mi NNE 23.0 mph 32.2 mph 0.10 in Rain Rain
4:13 PM 42.8 °F 34.3 °F 39.2 °F 87% 29.74 in 4.0 mi North 19.6 mph 32.2 mph N/A Rain Light Rain
4:33 PM 42.8 °F 33.3 °F 39.2 °F 87% 29.74 in 7.0 mi North 24.2 mph 31.1 mph N/A   Overcast
4:54 PM 42.8 °F 34.5 °F 39.2 °F 87% 29.76 in 4.0 mi NNE 18.4 mph 29.9 mph N/A   Overcast
5:13 PM 42.8 °F 34.5 °F 39.2 °F 87% 29.76 in 5.0 mi NNE 18.4 mph 28.8 mph N/A   Overcast
5:33 PM 42.8 °F 34.3 °F 39.2 °F 87% 29.78 in 4.0 mi NNE 19.6 mph 28.8 mph N/A   Overcast
5:54 PM 42.8 °F 34.3 °F 39.2 °F 87% 29.78 in 3.0 mi NNE 19.6 mph 29.9 mph N/A   Overcast
6:14 PM 42.8 °F 34.0 °F 39.2 °F 87% 29.77 in 4.0 mi NNE 20.7 mph 27.6 mph N/A   Overcast
6:33 PM 42.8 °F 35.1 °F 39.2 °F 87% 29.78 in 5.0 mi NNE 16.1 mph 32.2 mph N/A   Overcast
6:53 PM 42.8 °F 34.8 °F 39.2 °F 87% 29.79 in 5.0 mi NNE 17.3 mph 29.9 mph N/A   Overcast
7:14 PM 42.8 °F 34.5 °F 39.2 °F 87% 29.80 in 4.0 mi NNE 18.4 mph 25.3 mph N/A   Overcast
7:33 PM 42.8 °F 34.5 °F 39.2 °F 87% 29.80 in 4.0 mi NNE 18.4 mph 24.2 mph N/A   Overcast
7:53 PM 42.8 °F 35.1 °F 39.2 °F 87% 29.80 in 4.0 mi NNE 16.1 mph 25.3 mph N/A   Overcast
8:14 PM 42.8 °F 35.1 °F 39.2 °F 87% 29.81 in 4.0 mi NNE 16.1 mph 24.2 mph N/A   Overcast
8:33 PM 42.8 °F 35.1 °F 39.2 °F 87% 29.81 in 5.0 mi NNE 16.1 mph 27.6 mph N/A   Overcast
8:53 PM 42.8 °F 34.5 °F 39.2 °F 87% 29.82 in 5.0 mi NNE 18.4 mph 27.6 mph N/A   Overcast
9:14 PM 42.8 °F 35.8 °F 39.2 °F 87% 29.82 in 5.0 mi North 13.8 mph 25.3 mph N/A   Overcast
9:33 PM 42.8 °F 34.5 °F 39.2 °F 87% 29.83 in 7.0 mi NNE 18.4 mph 25.3 mph N/A   Overcast
9:53 PM 42.8 °F 35.4 °F 37.4 °F 81% 29.83 in 7.0 mi NNE 15.0 mph 28.8 mph N/A   Overcast
10:13 PM 42.8 °F 35.4 °F 37.4 °F 81% 29.83 in 7.0 mi NNE 15.0 mph 25.3 mph N/A   Overcast
10:33 PM 42.8 °F 34.8 °F 37.4 °F 81% 29.83 in 5.0 mi NNE 17.3 mph 24.2 mph N/A   Overcast
10:53 PM 42.8 °F 36.6 °F 37.4 °F 81% 29.84 in 5.0 mi NNE 11.5 mph 25.3 mph N/A   Overcast
11:14 PM 42.8 °F 35.1 °F 37.4 °F 81% 29.85 in 5.0 mi NNE 16.1 mph 21.9 mph N/A   Overcast
11:33 PM 42.8 °F 36.2 °F 37.4 °F 81% 29.85 in 4.0 mi NNE 12.7 mph 23.0 mph N/A   Light Drizzle
11:54 PM 42.8 °F 34.8 °F 37.4 °F 81% 29.85 in 4.0 mi NNE 17.3 mph 21.9 mph N/A   Drizzle